Litchfield, IL

2:49 PM CDT on June 25, 2017 (GMT -0500)
Litchfield

Weather History for K3LF - February, 2013

Change the Weather History Date:

Monday, February 25, 2013

  Actual Average (KALN) Record (KALN)
Temperature  
Mean Temperature 34 °F -  
Max Temperature 43 °F 43 °F 66 °F (1998)
Min Temperature 26 °F 29 °F 3 °F (2003)
Degree Days  
Heating Degree Days 30    
Moisture  
Dew Point 28 °F    
Average Humidity 77    
Maximum Humidity 90    
Minimum Humidity 60    
Precipitation  
Precipitation 0.02 in - - ()
Sea Level Pressure  
Sea Level Pressure 29.94 in    
Wind  
Wind Speed 10 mph (ENE)    
Max Wind Speed 21 mph    
Max Gust Speed 30 mph    
Visibility 10 miles    
Events Rain , Thunderstorm    
Averages and records for this station are not official NWS values.
T = Trace of Precipitation, MM = Missing Value Source: NWS Daily Summary

Daily Weather History Graph

Daily Weather History Graph

Search for Another Location

Airport or City:

Trip Planner

Search our weather history database for the weather conditions in past years. The results will help you decide how hot, cold, wet, or windy it might be!

Date:

Astronomy

Feb. 25, 2013 Rise Set
Actual Time 6:36 AM CST 5:47 PM CST
Civil Twilight 6:09 AM CST 6:14 PM CST
Nautical Twilight 5:38 AM CST 6:45 PM CST
Astronomical Twilight 5:07 AM CST 7:16 PM CST
Moon 6:00 PM CST 6:07 AM CST
Length of Visible Light 12h 04m
Length of Day
11h 10m
Full, 100% of the Moon is Illuminated
Feb 25
Full
Feb 25
Full
Mar 4
Last Quarter
Mar 11
New
Mar 19
First Quarter

Hourly Weather History & Observations

Time (CST) Temp. Windchill Dew Point Humidity Pressure Visibility Wind Dir Wind Speed Gust Speed Precip Events Conditions
12:15 AM 29.7 °F 23.7 °F 24.1 °F 80% 30.06 in 10.0 mi East 5.8 mph - N/A   Clear
12:35 AM 29.7 °F 23.7 °F 24.3 °F 80% 30.07 in 10.0 mi East 5.8 mph - N/A   Clear
12:55 AM 29.3 °F 24.3 °F 23.9 °F 80% 30.06 in 10.0 mi East 4.6 mph - N/A   Clear
1:15 AM 29.7 °F 24.7 °F 24.4 °F 81% 30.07 in 10.0 mi East 4.6 mph - N/A   Clear
1:35 AM 29.8 °F 26.3 °F 24.6 °F 81% 30.07 in 10.0 mi ENE 3.5 mph - N/A   Clear
1:55 AM 29.1 °F 24.1 °F 24.6 °F 83% 30.08 in 10.0 mi ENE 4.6 mph - N/A   Clear
2:15 AM 28.9 °F 25.2 °F 24.4 °F 83% 30.08 in 10.0 mi ENE 3.5 mph - N/A   Clear
2:35 AM 29.1 °F 25.4 °F 24.6 °F 83% 30.08 in 10.0 mi ENE 3.5 mph - N/A   Clear
2:55 AM 27.3 °F 22.0 °F 23.7 °F 86% 30.08 in 7.0 mi East 4.6 mph - N/A   Clear
3:15 AM 26.6 °F 20.0 °F 23.2 °F 87% 30.07 in 10.0 mi East 5.8 mph - N/A   Clear
3:35 AM 27.1 °F 20.7 °F 23.4 °F 86% 30.07 in 10.0 mi East 5.8 mph - N/A   Clear
3:55 AM 27.5 °F 20.2 °F 23.7 °F 86% 30.07 in 10.0 mi East 6.9 mph - N/A   Clear
4:15 AM 28.0 °F 19.3 °F 23.9 °F 84% 30.06 in 10.0 mi East 9.2 mph - N/A   Clear
4:35 AM 28.4 °F 19.1 °F 23.9 °F 83% 30.05 in 10.0 mi East 10.4 mph - N/A   Clear
4:55 AM 28.4 °F 19.7 °F 23.9 °F 83% 30.06 in 10.0 mi East 9.2 mph - N/A   Clear
5:15 AM 28.4 °F 20.4 °F 23.9 °F 83% 30.06 in 10.0 mi East 8.1 mph - N/A   Clear
5:35 AM 28.6 °F 19.9 °F 24.1 °F 83% 30.04 in 10.0 mi East 9.2 mph - N/A   Clear
6:15 AM 27.5 °F 19.3 °F 23.4 °F 84% 30.04 in 10.0 mi East 8.1 mph - N/A   Clear
6:35 AM 27.9 °F 20.6 °F 23.5 °F 84% 30.03 in 7.0 mi East 6.9 mph - N/A   Clear
6:55 AM 28.2 °F 19.5 °F 23.9 °F 84% 30.03 in 7.0 mi East 9.2 mph - N/A   Clear
7:15 AM 29.3 °F 20.8 °F 24.6 °F 83% 30.03 in 7.0 mi East 9.2 mph - N/A   Clear
7:35 AM 30.4 °F 22.9 °F 25.0 °F 80% 30.05 in 10.0 mi East 8.1 mph - N/A   Clear
7:55 AM 32.0 °F 24.8 °F 25.7 °F 78% 30.06 in 10.0 mi East 8.1 mph - N/A   Clear
8:15 AM 32.4 °F 24.0 °F 25.7 °F 76% 30.05 in 10.0 mi East 10.4 mph - N/A   Clear
8:35 AM 33.8 °F 24.8 °F 26.2 °F 74% 30.03 in 10.0 mi East 12.7 mph - N/A   Clear
8:55 AM 35.1 °F 25.9 °F 27.0 °F 72% 30.03 in 10.0 mi East 13.8 mph - N/A   Clear
9:15 AM 36.7 °F 29.4 °F 27.1 °F 68% 30.03 in 10.0 mi East 10.4 mph - N/A   Clear
9:35 AM 36.9 °F 29.1 °F 27.1 °F 68% 30.04 in 10.0 mi East 11.5 mph - N/A   Clear
9:55 AM 38.3 °F 32.5 °F 27.7 °F 66% 30.04 in 10.0 mi ESE 8.1 mph - N/A   Clear
10:15 AM 39.2 °F 31.6 °F 27.7 °F 63% 30.04 in 10.0 mi ESE 12.7 mph - N/A   Clear
10:35 AM 39.7 °F 32.7 °F 28.2 °F 63% 30.04 in 10.0 mi ESE 11.5 mph - N/A   Clear
10:55 AM 39.9 °F 34.5 °F 28.0 °F 63% 30.04 in 10.0 mi ESE 8.1 mph - N/A   Clear
11:15 AM 41.2 °F 34.5 °F 29.1 °F 62% 30.03 in 10.0 mi East 11.5 mph - N/A   Clear
11:35 AM 41.0 °F 34.3 °F 28.6 °F 61% 30.03 in 10.0 mi ESE 11.5 mph - N/A   Clear
11:55 AM 41.5 °F 33.8 °F 28.8 °F 60% 30.01 in 10.0 mi East 15.0 mph - N/A   Clear
12:15 PM 42.4 °F 37.0 °F 29.5 °F 60% 30.01 in 10.0 mi East 9.2 mph - N/A   Clear
12:35 PM 42.3 °F 36.3 °F 29.5 °F 61% 29.98 in 10.0 mi East 10.4 mph - N/A   Clear
12:55 PM 41.5 °F 35.0 °F 29.1 °F 61% 29.95 in 10.0 mi East 11.5 mph 19.6 mph N/A   Clear
1:15 PM 43.0 °F 38.2 °F 29.8 °F 60% 29.98 in 10.0 mi ENE 8.1 mph - N/A   Clear
1:35 PM 41.5 °F 37.1 °F 29.7 °F 63% 29.96 in 10.0 mi NE 6.9 mph - N/A   Clear
1:55 PM 40.5 °F 33.2 °F 29.8 °F 66% 29.94 in 10.0 mi NE 12.7 mph - N/A   Clear
2:15 PM 41.0 °F 34.3 °F 30.7 °F 67% 29.94 in 10.0 mi NE 11.5 mph 16.1 mph N/A   Clear
2:35 PM 40.3 °F 31.9 °F 31.3 °F 70% 29.91 in 10.0 mi NE 16.1 mph - N/A   Clear
2:55 PM 39.7 °F 30.6 °F 31.1 °F 71% 29.90 in 10.0 mi NE 18.4 mph 24.2 mph N/A   Clear
3:15 PM 39.2 °F 30.2 °F 31.1 °F 73% 29.89 in 10.0 mi NE 17.3 mph 23.0 mph N/A   Clear
3:35 PM 38.7 °F 28.6 °F 30.2 °F 72% 29.88 in 10.0 mi ENE 20.7 mph 24.2 mph N/A   Clear
3:55 PM 39.2 °F 31.2 °F 30.9 °F 72% 29.87 in 10.0 mi NE 13.8 mph 24.2 mph N/A   Clear
4:15 PM 38.8 °F 29.1 °F 31.8 °F 76% 29.85 in 10.0 mi NE 19.6 mph 26.5 mph N/A   Clear
4:35 PM 38.5 °F 29.2 °F 32.0 °F 78% 29.85 in 10.0 mi NE 17.3 mph 25.3 mph N/A   Clear
4:55 PM 37.9 °F 28.9 °F 32.0 °F 79% 29.84 in 10.0 mi NE 16.1 mph 26.5 mph N/A   Clear
5:15 PM 37.9 °F 27.9 °F 32.0 °F 79% 29.85 in 10.0 mi NE 19.6 mph 24.2 mph N/A   Scattered Clouds
5:35 PM 37.6 °F 27.4 °F 32.0 °F 80% 29.81 in 10.0 mi NE 19.6 mph 27.6 mph N/A   Scattered Clouds
5:55 PM 37.4 °F 27.2 °F 31.6 °F 80% 29.81 in 10.0 mi NE 19.6 mph 25.3 mph N/A   Clear
6:15 PM 37.0 °F 27.4 °F 32.0 °F 82% 29.81 in 10.0 mi NE 17.3 mph 27.6 mph N/A   Scattered Clouds
6:35 PM 37.0 °F 27.0 °F 31.6 °F 81% 29.82 in 10.0 mi NE 18.4 mph - N/A   Mostly Cloudy
6:55 PM 36.9 °F 26.5 °F 31.1 °F 80% 29.81 in 10.0 mi NE 19.6 mph 26.5 mph N/A   Mostly Cloudy
7:15 PM 36.7 °F 26.9 °F 30.7 °F 79% 29.79 in 10.0 mi NE 17.3 mph 25.3 mph N/A   Overcast
7:35 PM 36.7 °F 26.3 °F 30.9 °F 80% 29.81 in 10.0 mi ENE 19.6 mph 27.6 mph N/A   Overcast
7:55 PM 36.5 °F 26.7 °F 30.7 °F 80% 29.81 in 10.0 mi ENE 17.3 mph 23.0 mph N/A   Overcast
8:15 PM 36.0 °F 27.5 °F 30.7 °F 81% 29.81 in 10.0 mi NE 12.7 mph 20.7 mph N/A   Overcast
8:35 PM 35.8 °F 27.8 °F 30.7 °F 82% 29.83 in 10.0 mi NE 11.5 mph - N/A   Overcast
8:55 PM 35.6 °F 27.1 °F 30.6 °F 82% 29.82 in 10.0 mi NNE 12.7 mph - N/A Thunderstorm Overcast
9:15 PM 35.2 °F 25.0 °F 30.7 °F 84% 29.81 in 10.0 mi NNE 17.3 mph - N/A   Overcast
9:35 PM 35.2 °F 24.7 °F 30.2 °F 82% 29.79 in 10.0 mi NNE 18.4 mph 21.9 mph N/A   Overcast
9:55 PM 35.1 °F 24.5 °F 30.6 °F 84% 29.77 in 7.0 mi NE 18.4 mph 26.5 mph N/A Rain Light Rain
10:15 PM 34.3 °F 24.2 °F 30.9 °F 87% 29.76 in 7.0 mi NNE 16.1 mph 27.6 mph N/A Rain Light Rain
10:35 PM 34.3 °F 23.5 °F 30.9 °F 87% 29.74 in 7.0 mi NE 18.4 mph 26.5 mph N/A   Light Drizzle
10:55 PM 33.8 °F 22.2 °F 31.1 °F 90% 29.73 in 5.0 mi NE 20.7 mph 26.5 mph N/A Rain Rain
11:15 PM 33.8 °F 22.5 °F 30.9 °F 89% 29.71 in 7.0 mi NE 19.6 mph 29.9 mph 0.01 in Rain Light Rain
11:35 PM 33.8 °F 22.8 °F 30.7 °F 89% 29.70 in 7.0 mi NE 18.4 mph 28.8 mph 0.01 in Rain Light Rain
11:55 PM 33.8 °F 22.2 °F 30.9 °F 89% 29.68 in 7.0 mi NE 20.7 mph 25.3 mph 0.02 in Rain Light Rain